Location: Chamerau
(49.1969°N, 12.7525°E)
Time: 04:45:21
(UTC+00:00)

Cosmos 2034 Rocket - Pass Details

Date: 18 September 2020
Orbit: 957 x 1002 km, 82.9° (Epoch: 29 October)

Event Time Altitude Azimuth Distance (km) Brightness Sun altitude
Rises 18:54:12 0° 181° (S) 3,713 6.8 -16.6°
Reaches altitude 10° 18:56:43 10° 180° (S) 2,767 6.1 -17.0°
Maximum altitude 19:03:04 76° 96° (E) 1,035 3.9 -17.9°
Drops below altitude 10° 19:09:25 10° 12° (NNE) 2,770 6.5 -18.9°
Sets 19:11:57 0° 11° (N) 3,718 7.2 -19.2°
